This is the latest recevied weather packets stored in our database for station/object N1MCJ. If no packets are shown the sender has not sent any weather packets the latest 10 day(s).
| Time | Temp. | Humidity | Pressure | Rain* | Wind** | Luminosity | Snow |
|---|---|---|---|---|---|---|---|
| 1778206435 | 8.89° C | 69% | 1001.1 hPa | 0 mm | - | 0 W/m² | - |
| 1778205531 | 8.89° C | 66% | 1001 hPa | 0 mm | - | 0 W/m² | - |
| 1778204628 | 9.44° C | 69% | 1001.1 hPa | 0 mm | - | 0 W/m² | - |
| 1778203723 | 9.44° C | 65% | 1000.7 hPa | 0 mm | - | 0 W/m² | - |
| 1778202822 | 10° C | 64% | 1000.7 hPa | 0 mm | - | 0 W/m² | - |
| 1778201919 | 10° C | 59% | 1000.5 hPa | 0 mm | - | 0 W/m² | - |
| 1778201019 | 11.11° C | 58% | 1000.3 hPa | 0 mm | - | 0 W/m² | - |
| 1778200115 | 11.67° C | 59% | 999.9 hPa | 0 mm | - | 0 W/m² | - |
| 1778199210 | 12.78° C | 55% | 999.7 hPa | 0 mm | - | 0 W/m² | - |
| 1778198305 | 12.78° C | 50% | 1000 hPa | 0 mm | - | 0 W/m² | - |
| 1778197402 | 13.33° C | 51% | 999.7 hPa | 0 mm | - | 3 W/m² | - |
| 1778196500 | 14.44° C | 43% | 999.4 hPa | 0 mm | - | 8 W/m² | - |
| 1778195595 | 14.44° C | 42% | 999.3 hPa | 0 mm | - | 16 W/m² | - |
| 1778194695 | 16.11° C | 36% | 999.1 hPa | 0 mm | - | 29 W/m² | - |
| 1778193790 | 16.67° C | 35% | 999.2 hPa | 0 mm | - | 36 W/m² | - |
| 1778192886 | 16.67° C | 35% | 999 hPa | 0 mm | - | 43 W/m² | - |
| 1778191981 | 16.67° C | 35% | 999 hPa | 0 mm | - | 53 W/m² | - |
| 1778191078 | 15.56° C | 38% | 998.9 hPa | 0 mm | - | 28 W/m² | - |
| 1778190175 | 17.22° C | 38% | 998.8 hPa | 0 mm | - | 312 W/m² | - |
| 1778189270 | 17.78° C | 35% | 999 hPa | 0 mm | - | 390 W/m² | - |
| 1778188371 | 16.67° C | 35% | 998.7 hPa | 0 mm | - | 424 W/m² | - |
| 1778187467 | 17.78° C | 35% | 999 hPa | 0 mm | - | 492 W/m² | - |
| 1778186564 | 17.78° C | 33% | 998.7 hPa | 0 mm | - | 549 W/m² | - |
| 1778185661 | 16.67° C | 37% | 998.9 hPa | 0 mm | - | 552 W/m² | - |
| 1778184761 | 18.89° C | 36% | 998.7 hPa | 0 mm | - | 611 W/m² | - |
* Rain latest hour (hover to see other rain measurements)
** Current wind speed in m/s (hover to see current wind gust speed)